Wind_Speed
19 15 13 13 12 12 15 18 20 21 21 23 24 24 22 21 21 19 17 17 18 15 10 7 8 12 12 12 13 13 13 12 12 12 10 9 8 7 6 7 7 8 8 8 8 8 8 7 7 6 6 6 6 7 8 8 7 6 5 4 4 5 5 5 5 6 6 6 6 6 6 7 6 7 8 9 10 9 9 11 9 8 7 8 10
20 16 16 16 14 12 14 16 18 18 20 23 25 26 24 22 22 19 15 15 17 15 11 8 8 12 13 12 13 13 12 12 12 11 10 9 8 7 7 8 8 8 8 8 8 8 7 7 7 6 6 6 7 7 8 9 8 8 7 6 5 6 5 5 5 5 6 6 6 5 5 6 5 5 6 8 9 9 9 9 8 7 8 9 9
20 18 19 19 16 15 16 16 18 18 20 23 24 26 27 25 23 20 18 19 18 15 12 9 9 12 12 12 12 13 12 12 12 11 10 9 8 8 8 8 8 9 9 9 9 9 8 7 7 6 6 6 7 7 9 9 9 9 8 7 7 6 6 5 5 5 6 6 6 6 6 6 6 6 6 7 9 8 8 8 7 7 9 10 8
20 20 21 19 18 18 17 19 20 18 20 22 20 19 22 25 25 22 20 20 17 14 12 10 10 12 11 11 11 12 13 12 12 11 10 9 8 8 8 8 9 9 9 9 9 8 8 8 7 7 7 7 7 8 9 10 10 10 9 8 7 7 7 6 5 6 6 6 7 7 7 7 7 7 7 8 8 7 8 8 7 7 8 10 9
22 23 22 19 19 19 19 23 22 18 21 23 21 19 17 18 21 22 22 19 16 14 12 9 13 16 12 11 11 12 14 13 12 11 10 9 8 8 8 8 9 9 9 9 9 9 8 8 8 8 8 7 7 8 9 10 10 10 10 9 8 8 7 7 6 6 6 7 7 8 8 8 8 8 7 8 8 7 8 9 8 7 9 11 11
24 23 21 20 20 20 20 22 20 16 19 23 23 22 19 16 16 19 20 18 15 13 12 11 17 20 16 13 14 16 16 15 13 12 11 10 8 8 8 8 9 9 9 9 9 9 9 9 9 9 8 8 8 8 8 9 10 10 10 9 8 7 7 7 7 6 7 8 8 8 8 8 9 9 8 9 9 8 9 10 9 9 11 12 11
24 20 18 19 21 22 22 22 22 20 21 22 21 19 18 18 18 17 18 19 18 15 13 12 17 22 19 15 16 18 18 16 14 13 11 10 9 9 9 8 9 9 9 9 9 10 10 10 10 10 9 9 8 8 8 9 9 9 9 9 8 7 7 7 6 6 7 8 9 9 8 8 9 9 9 9 10 10 10 10 11 12 12 13 12
19 15 16 18 21 23 23 22 23 23 21 18 17 16 16 15 14 14 15 18 19 16 14 14 18 21 18 15 16 17 17 16 14 13 12 12 11 10 10 9 9 9 9 10 10 11 11 11 11 10 10 9 9 8 8 8 8 8 8 9 8 8 7 6 5 5 6 8 9 9 9 9 9 9 10 11 11 11 11 11 12 13 14 14 14
15 14 16 19 22 23 22 22 22 22 18 16 16 15 13 11 10 12 14 14 16 15 15 17 19 19 16 16 16 16 16 14 14 14 14 15 14 12 11 10 10 9 10 11 12 12 12 12 12 11 10 10 9 8 8 8 8 8 8 9 9 9 8 7 6 5 6 8 8 9 9 9 9 10 11 11 12 13 12 12 13 15 15 15 15
16 15 18 20 22 23 22 21 22 21 18 17 17 15 13 11 11 12 12 13 15 16 16 18 19 17 16 16 16 15 15 15 16 16 17 17 15 14 12 11 10 10 10 11 11 12 12 13 13 12 12 11 10 9 9 9 8 8 9 9 9 9 9 8 7 6 7 8 9 9 10 10 10 10 11 11 11 12 12 13 14 16 17 17 17
19 18 20 21 23 24 21 19 20 19 16 15 16 16 14 13 13 12 13 14 16 17 17 18 19 18 18 17 16 16 16 16 16 16 17 17 15 14 12 11 11 10 11 10 11 11 12 12 12 12 12 12 12 11 10 10 10 10 10 10 10 10 10 9 8 8 8 9 9 10 10 11 11 12 12 12 12 11 12 13 16 17 18 18 18
23 22 23 24 25 24 19 17 18 17 14 13 13 13 10 9 10 11 13 15 16 17 18 19 20 20 19 17 17 18 17 16 15 15 16 15 15 14 13 12 12 11 11 11 11 12 12 11 12 12 12 12 12 12 12 12 12 13 13 13 13 12 12 11 11 10 10 10 11 11 11 11 12 12 13 13 13 13 14 15 17 18 19 19 18
26 26 26 25 23 21 19 18 17 15 13 12 12 11 8 3 6 7 8 11 15 17 18 20 21 21 20 19 20 20 18 16 15 14 15 14 14 14 14 13 12 12 12 12 13 13 12 12 12 12 12 13 13 14 14 14 15 15 16 16 16 15 14 14 13 13 12 12 12 12 12 11 11 12 12 13 13 14 15 17 19 19 19 19 18
27 27 26 23 20 20 21 19 17 14 13 12 11 10 6 6 7 5 5 8 12 16 19 20 21 21 22 23 23 22 19 17 15 14 14 14 14 14 14 14 13 14 14 14 15 15 15 14 14 14 14 14 15 15 16 17 17 18 19 19 19 17 16 15 15 15 14 14 13 13 13 11 11 12 12 13 13 14 16 18 19 19 19 18 18
27 26 24 20 18 18 18 15 14 13 12 11 10 8 8 10 9 9 8 8 11 15 17 18 18 20 23 25 25 24 22 18 15 14 14 14 15 15 15 15 14 15 14 15 16 17 17 17 17 16 16 17 17 17 18 18 19 20 20 20 20 19 18 17 16 16 15 14 13 13 13 11 11 12 12 13 14 15 17 18 18 18 17 17 18
23 22 19 16 16 14 11 10 12 12 11 11 9 8 8 9 11 13 10 9 12 16 17 17 17 18 22 25 26 25 23 20 17 16 16 16 15 14 14 15 15 16 16 16 16 17 18 18 17 16 16 16 16 17 18 18 19 20 20 20 20 19 18 17 17 16 14 13 12 13 13 12 12 12 12 13 14 15 16 17 17 16 16 17 17
20 21 19 16 13 10 8 8 10 11 10 10 9 8 6 6 10 13 13 13 15 17 18 18 18 18 20 23 25 25 24 21 19 18 18 16 14 13 14 15 16 17 18 18 17 17 18 18 17 16 15 13 13 14 15 16 18 19 20 20 19 18 17 17 16 15 13 13 13 13 13 13 13 13 13 14 14 15 16 16 15 15 15 16 17
23 22 21 17 13 9 8 8 9 10 9 9 9 7 5 4 5 9 14 16 16 16 18 18 17 17 18 19 21 22 22 21 19 19 18 16 15 14 13 15 17 18 20 20 19 18 18 18 18 17 15 13 12 12 14 15 17 18 19 19 18 18 17 17 16 15 14 14 14 14 14 15 15 14 15 15 16 16 17 16 15 15 16 16 16
22 22 21 17 13 10 8 8 8 9 10 10 9 7 6 5 6 9 14 17 15 13 15 17 14 14 15 15 15 16 17 19 19 20 19 17 17 15 13 14 16 18 20 21 20 19 18 18 18 17 15 13 12 12 13 14 16 17 17 17 17 17 17 17 16 16 15 15 15 15 15 16 16 16 16 17 17 17 17 16 16 15 15 15 15
22 21 19 17 16 14 12 10 9 10 11 11 11 10 9 8 10 12 15 17 14 11 13 15 15 16 16 15 14 14 17 19 20 20 20 20 19 17 15 14 15 18 21 21 21 20 19 19 19 18 16 15 13 13 13 14 14 15 15 15 16 16 17 17 17 17 16 16 16 17 17 17 17 17 17 17 17 17 17 17 16 15 14 14 13
22 20 18 18 19 19 17 14 13 12 13 13 13 13 12 11 12 14 16 16 13 12 14 16 17 18 18 16 15 16 18 20 20 20 21 21 20 19 18 17 17 18 20 22 21 20 20 20 20 20 19 16 15 14 14 13 14 14 14 14 15 15 16 16 17 17 17 17 18 18 19 19 18 18 18 18 18 18 18 18 17 16 15 14 13
21 20 19 19 20 22 21 18 16 16 15 16 15 15 15 15 16 16 16 14 12 13 14 16 18 17 16 16 17 18 20 20 20 20 20 20 20 20 20 20 20 20 21 23 23 21 20 20 20 20 20 18 17 16 15 15 14 14 14 14 15 16 16 17 17 17 18 18 19 19 19 20 20 20 20 20 20 20 20 19 18 18 17 16 15
19 20 20 20 21 23 23 21 20 19 17 17 17 17 18 19 20 19 17 16 15 15 16 17 18 17 16 16 17 19 20 21 22 21 20 20 19 18 18 19 20 21 21 23 25 24 22 20 19 19 19 20 19 18 17 17 16 15 15 15 15 16 17 17 18 18 18 19 19 19 19 19 20 20 20 20 20 20 20 19 18 18 18 17 16
16 18 19 20 21 21 23 23 22 20 18 18 18 19 20 22 22 21 20 19 18 17 18 20 19 19 18 18 18 20 21 22 24 24 23 20 17 15 16 18 19 20 21 23 25 26 26 23 21 19 20 20 20 19 19 18 18 17 16 16 16 16 17 17 18 18 18 18 18 18 18 19 19 19 19 20 20 20 20 19 19 18 17 16 15
14 15 17 18 19 18 17 18 19 18 18 18 19 20 21 22 21 20 21 21 19 20 22 23 22 20 19 19 18 20 21 22 24 25 25 23 19 16 17 17 18 19 21 22 23 26 28 26 23 21 21 21 20 20 19 19 19 18 17 17 16 16 16 16 17 17 17 17 17 18 19 20 20 19 19 19 19 19 19 18 17 16 15 14 13
16 16 17 18 18 17 16 15 16 16 18 19 20 22 22 21 20 20 21 21 22 23 22 22 21 20 19 20 19 19 21 22 21 22 25 27 24 20 17 17 17 18 20 21 23 24 26 26 25 23 22 21 20 20 21 21 20 19 18 18 17 17 17 16 16 17 17 17 18 19 20 20 20 19 18 17 17 17 16 16 15 15 15 15 15
16 16 18 20 20 19 19 19 19 19 20 20 21 21 21 20 20 20 21 22 24 24 23 21 21 20 21 22 22 22 23 24 24 22 24 30 30 24 17 15 16 17 18 20 22 23 24 25 24 24 23 22 22 22 22 22 21 21 20 19 19 18 17 16 16 17 17 17 18 18 19 19 18 17 16 16 16 17 17 17 17 17 17 17 17
14 15 16 17 18 18 19 20 20 20 21 22 22 22 22 21 20 19 19 20 20 19 20 21 21 20 20 20 21 23 24 24 25 24 24 28 30 25 18 16 17 17 17 18 19 21 23 24 25 25 25 24 24 24 23 23 23 22 22 21 21 19 17 17 17 18 18 18 18 18 17 17 17 16 16 17 17 18 19 19 20 20 20 20 19
16 16 16 15 14 15 17 19 20 20 21 22 23 24 24 22 19 17 16 16 15 15 16 17 17 17 17 18 19 21 23 22 22 22 21 21 23 23 20 19 20 19 18 18 18 20 22 23 24 25 25 25 25 25 24 24 23 23 22 21 20 19 18 18 18 18 18 18 18 18 18 18 18 18 18 18 19 19 20 21 22 22 22 22 22
18 18 18 18 16 15 16 17 19 20 20 20 20 20 21 20 19 18 18 17 16 15 16 16 16 16 17 17 18 19 21 22 21 21 20 18 20 22 21 21 21 21 20 20 21 22 22 22 23 23 24 25 25 24 24 23 23 22 21 21 20 20 19 19 19 19 20 20 20 20 20 20 20 20 21 21 21 21 21 22 23 23 23 23 24
21 21 20 19 18 17 16 17 19 19 20 19 17 17 18 19 19 18 18 18 18 18 18 18 18 18 18 18 18 18 20 21 21 21 22 22 21 21 21 21 21 20 20 20 21 22 23 23 22 22 23 22 22 22 22 22 22 22 22 22 22 21 21 21 22 22 23 23 23 23 23 23 23 23 23 23 23 23 23 23 24 24 24 24 23
24 24 22 20 19 19 19 20 21 22 22 22 20 19 20 20 20 19 19 20 21 20 20 20 20 21 21 21 21 21 22 22 22 22 22 22 21 19 20 21 21 20 19 18 20 22 24 23 22 22 22 22 21 22 22 22 22 23 23 24 24 24 24 24 24 25 25 25 26 26 25 25 25 26 26 26 26 26 25 26 26 25 24 24 24
23 23 22 20 20 20 19 20 21 22 23 22 22 22 22 22 22 22 22 21 21 21 20 21 22 23 24 24 24 24 25 26 25 23 21 20 20 19 21 21 21 21 21 19 20 22 24 24 23 22 22 23 23 23 23 23 23 23 23 24 25 25 26 26 26 26 26 27 28 27 27 28 28 29 29 29 29 29 29 30 29 28 27 27 28
19 19 19 20 21 21 20 19 20 22 22 22 21 21 21 22 22 22 21 20 20 20 20 21 23 23 24 25 26 27 28 28 28 26 23 22 22 21 22 21 20 21 22 21 20 20 21 22 23 22 22 23 23 24 24 24 24 24 25 25 26 26 27 28 28 28 29 29 30 30 30 31 32 32 32 31 31 32 33 33 32 31 30 30 32
18 18 20 21 22 22 21 20 21 22 21 21 21 20 21 21 22 21 21 21 21 22 22 23 23 23 24 25 25 27 27 27 27 27 26 25 24 24 24 24 23 24 24 24 24 22 21 21 23 23 22 23 23 25 26 27 27 27 28 28 29 29 29 30 30 31 32 32 33 33 34 34 35 34 33 32 33 33 34 34 34 34 34 34 34
24 24 24 23 24 23 22 22 23 23 22 21 20 21 22 22 23 22 22 23 24 24 25 24 24 23 23 24 24 24 24 24 25 26 26 26 25 25 25 25 25 26 26 26 26 25 23 23 24 24 23 24 26 29 31 32 32 32 32 32 32 33 33 33 34 35 35 36 37 37 37 38 37 37 35 35 35 35 36 37 38 37 37 37 37
26 25 25 25 25 24 23 24 25 25 26 25 22 21 21 23 23 24 24 24 25 25 26 26 26 25 24 24 25 25 25 25 25 26 26 26 27 27 27 26 26 28 28 28 28 28 28 27 27 28 29 31 32 34 35 36 36 36 36 35 36 36 36 37 37 37 38 39 41 42 41 41 40 39 38 37 38 38 39 40 40 40 40 40 41
28 28 28 27 24 23 24 25 23 22 24 24 22 21 22 23 24 25 25 25 26 27 28 29 29 29 28 28 28 28 28 28 28 28 28 28 28 29 29 28 29 31 31 31 32 32 33 33 33 35 37 39 39 39 39 39 39 39 39 39 39 40 41 41 42 41 41 42 43 42 42 42 43 42 41 41 42 42 41 41 42 42 43 43 43
29 28 29 28 25 23 24 25 24 24 25 26 26 27 28 28 29 29 29 28 29 30 30 30 30 30 30 30 30 31 31 31 31 31 30 30 30 31 31 32 32 33 34 35 36 36 37 38 39 40 42 43 43 43 43 43 43 43 43 42 42 43 44 45 45 45 45 45 44 43 43 43 43 43 43 43 44 43 42 44 47 46 47 48 48
26 25 25 26 26 26 26 27 29 31 32 33 33 34 35 35 34 34 34 34 34 34 35 35 35 34 34 34 34 34 33 33 32 32 32 33 34 34 35 36 36 37 37 38 38 40 40 41 42 43 44 44 45 46 47 47 47 47 46 46 46 47 47 48 48 48 48 49 49 50 51 50 49 49 48 48 47 46 45 47 49 49 50 52 54
28 28 28 29 30 31 31 31 32 34 35 36 37 38 39 39 39 39 38 38 38 39 40 40 41 41 40 40 39 39 38 36 35 34 34 34 35 37 38 39 40 41 41 42 42 43 44 45 45 46 47 48 48 49 50 50 50 50 50 50 50 51 51 52 52 52 52 53 54 55 56 56 56 56 56 54 53 52 51 51 52 53 54 57 58
37 35 34 34 34 34 33 33 34 35 35 37 38 38 39 40 41 42 42 42 42 42 42 43 43 43 43 42 42 41 40 39 37 36 36 36 37 38 39 40 41 42 43 43 44 44 44 45 46 46 47 48 48 49 50 51 52 52 53 53 54 54 54 55 55 55 56 56 57 58 58 57 57 57 57 56 55 55 55 56 56 57 59 61 61
41 39 39 39 39 38 37 36 36 36 36 37 37 38 39 40 41 43 44 45 46 45 45 44 44 43 43 42 42 42 41 40 40 40 40 41 41 42 42 43 43 43 43 43 43 43 43 44 45 46 46 47 48 48 49 49 50 52 53 53 54 54 55 56 55 55 56 56 57 58 58 58 57 57 57 57 57 57 58 59 59 60 61 62 62
37 37 38 40 41 41 41 39 38 38 38 38 39 40 41 41 41 42 43 44 45 46 46 46 45 44 44 43 43 43 43 43 43 44 45 46 47 47 47 47 46 46 46 46 45 46 46 47 47 48 48 49 50 51 51 52 53 54 55 55 56 56 56 57 57 56 57 58 58 59 59 60 61 61 61 62 62 62 62 62 61 61 60 59 59
34 34 34 35 37 38 38 38 38 37 37 37 37 37 37 36 37 38 38 39 40 41 42 43 44 44 44 43 43 43 44 44 45 45 46 47 48 48 48 48 47 47 47 47 48 48 49 49 50 50 50 51 51 52 52 54 55 56 56 57 58 58 59 60 60 60 60 61 61 61 62 63 64 65 65 65 65 64 63 62 61 60 58 57 57
33 32 31 32 34 35 36 36 36 36 35 35 35 34 34 34 34 34 35 35 36 37 38 39 40 40 41 41 41 42 42 42 43 43 44 45 45 46 47 47 47 47 47 48 48 49 50 50 51 52 52 52 53 54 55 56 57 58 58 59 60 60 61 62 63 63 63 64 64 64 65 65 66 66 66 65 64 63 62 61 59 56 55 54 54
32 31 32 32 33 34 35 36 36 36 36 35 35 35 35 35 35 35 35 36 37 38 38 38 39 39 40 41 41 42 42 43 43 44 44 45 46 46 47 47 48 48 48 49 50 50 51 52 53 54 55 56 57 58 59 60 61 62 62 63 63 64 65 65 66 66 66 66 66 66 67 68 68 68 67 66 64 61 60 59 55 50 49 50 49
33 33 34 34 35 36 37 37 38 38 37 37 37 37 37 37 37 38 38 39 39 40 40 40 41 41 42 43 43 44 44 45 46 46 47 47 48 49 49 50 50 51 51 52 53 54 54 55 56 56 57 58 59 60 61 62 63 64 65 66 66 67 67 68 68 68 69 68 68 68 68 69 69 69 68 67 64 60 57 55 51 46 46 49 50
37 37 37 38 39 39 39 40 40 40 40 39 39 39 40 40 40 41 41 42 42 43 43 44 44 45 45 46 47 47 47 48 49 50 50 51 52 52 53 54 55 55 56 56 57 57 57 58 58 58 59 59 60 61 63 64 65 66 67 67 68 69 69 70 70 71 71 70 70 69 69 69 69 68 68 66 63 59 54 49 47 46 46 50 53
40 39 40 40 41 41 41 42 42 42 41 41 41 42 42 42 42 43 43 44 45 46 47 47 48 48 49 49 50 50 51 51 52 53 53 54 55 56 57 57 58 59 60 61 61 61 61 61 61 61 61 61 61 61 62 63 64 65 66 66 67 67 68 68 69 69 70 70 70 69 69 68 67 67 66 63 61 58 53 48 46 47 47 48 50
41 40 40 41 41 42 43 43 43 42 42 43 43 44 44 45 45 46 46 47 48 49 49 50 51 51 52 52 52 53 53 54 54 55 56 57 58 59 60 61 61 62 62 63 63 64 63 63 62 60 60 59 59 59 59 59 59 59 61 62 62 62 62 63 64 65 65 65 66 66 65 65 65 64 63 61 59 56 53 48 46 46 47 47 47
Wind_Direction
236 239 247 251 257 266 262 255 254 257 263 268 270 273 275 277 278 284 285 263 257 270 266 251 241 222 210 215 221 221 221 218 212 207 208 209 210 219 230 235 239 242 243 242 241 241 241 243 245 247 250 255 256 254 254 256 257 254 248 241 237 238 243 253 262 264 260 256 254 250 246 244 235 223 221 224 227 221 213 219 230 236 245 251 251
242 246 249 247 254 274 274 260 257 264 270 271 274 276 275 273 272 276 274 262 270 277 264 254 239 220 212 212 215 219 218 213 208 205 204 206 209 215 224 232 237 239 241 241 241 240 240 240 242 244 246 251 253 252 251 252 253 248 240 235 232 234 237 241 247 250 247 246 246 241 236 233 224 211 201 208 221 225 221 222 225 236 251 259 261
250 247 248 252 267 289 288 266 262 272 274 273 276 272 266 265 268 269 257 254 271 274 259 251 230 215 210 208 215 223 220 211 204 201 204 207 209 212 220 230 235 238 239 239 238 237 237 238 242 244 245 249 253 255 255 255 255 250 242 236 230 229 232 236 238 238 236 236 237 231 219 214 209 202 196 202 215 224 226 222 220 232 253 264 265
248 245 253 266 282 292 287 268 264 269 273 280 287 278 266 260 259 256 246 247 261 259 248 240 215 204 203 202 211 226 224 215 206 199 199 203 207 212 220 231 235 236 235 235 236 237 241 245 247 247 245 246 248 250 252 254 255 253 247 241 235 231 231 234 233 230 231 233 232 225 215 216 213 205 203 205 209 219 221 214 214 228 251 264 262
245 249 259 268 277 284 286 276 269 264 276 295 303 297 287 272 257 248 243 246 248 239 235 228 204 198 203 204 207 222 222 214 207 199 194 197 206 216 224 232 234 234 233 234 239 243 247 250 250 248 246 245 243 242 245 249 252 254 252 246 240 237 234 232 231 231 235 234 229 222 216 218 214 206 209 215 216 221 214 210 217 231 246 256 254
247 253 260 267 277 290 294 286 279 277 290 303 306 300 296 292 276 252 241 238 231 228 233 223 203 205 214 212 207 216 218 212 207 201 194 195 208 223 230 235 235 235 236 240 245 249 250 249 248 246 242 242 242 240 241 244 248 252 255 254 249 244 239 235 233 234 238 239 234 229 225 222 218 211 213 221 225 225 220 223 231 234 240 248 251
248 254 263 274 286 295 298 297 299 302 303 301 302 304 297 293 284 257 238 233 231 233 235 219 204 211 222 220 212 213 214 211 207 200 194 196 209 224 232 237 240 241 244 248 251 252 252 250 246 242 235 231 231 232 234 238 244 250 256 262 261 255 246 240 236 232 237 244 245 242 238 232 227 220 217 221 224 225 227 235 240 240 244 247 249
247 257 271 284 293 297 299 302 303 303 305 300 296 304 304 296 278 255 246 242 234 228 221 208 204 212 219 216 211 212 210 207 203 198 196 199 207 217 226 235 240 245 249 251 253 254 254 251 246 239 230 224 223 225 229 233 238 245 253 259 261 259 253 245 240 235 238 248 252 253 249 243 238 231 225 222 222 224 227 233 241 247 251 252 250
256 272 283 290 293 294 297 302 303 301 302 297 292 297 301 296 280 269 264 248 226 212 203 198 203 209 207 204 204 206 207 204 203 201 200 203 207 212 221 231 237 242 245 250 254 256 255 252 244 236 229 225 224 225 229 232 234 238 243 250 254 256 255 251 247 244 244 250 255 258 256 252 248 241 234 228 224 223 225 228 236 244 249 251 250
265 278 285 287 288 291 297 301 303 304 302 295 294 297 290 278 280 285 276 249 223 211 202 197 203 204 198 198 201 204 207 208 209 209 207 208 210 214 220 228 234 237 242 248 253 254 252 248 241 233 230 230 230 232 237 238 239 241 242 246 250 253 255 255 252 249 249 252 253 254 256 256 254 251 247 242 237 232 230 230 235 240 244 246 246
266 273 278 281 283 287 294 300 303 308 311 306 304 302 286 267 266 272 267 250 229 217 206 199 201 195 189 194 198 202 205 206 209 211 213 215 216 218 221 225 229 233 239 245 248 248 244 239 235 231 231 233 234 236 242 246 249 252 253 253 255 257 258 257 254 250 249 251 251 251 251 251 252 252 251 250 248 245 241 239 239 242 245 245 246
265 268 272 274 278 281 287 298 304 309 311 308 310 311 298 267 251 247 247 238 224 215 208 203 201 191 186 190 194 194 193 195 203 209 214 218 219 220 221 222 226 230 236 240 240 239 236 232 232 231 232 236 238 241 245 250 254 257 259 259 257 257 257 256 253 251 251 252 252 251 249 249 250 253 254 253 252 249 247 244 242 244 246 247 251
260 260 261 264 271 277 285 294 298 302 306 302 304 312 311 246 200 202 211 214 212 211 210 208 205 193 185 187 190 190 189 192 200 206 208 210 211 215 218 221 227 232 236 236 235 235 235 236 238 238 237 238 241 246 250 256 260 262 263 262 259 256 253 252 251 252 254 254 254 254 253 256 259 261 262 262 261 257 253 248 245 246 249 251 255
248 245 247 253 263 277 286 289 290 295 302 301 299 298 275 203 187 206 214 205 207 211 211 209 205 195 188 188 192 193 195 197 202 207 208 204 204 210 215 220 228 234 235 232 232 234 237 240 244 245 245 245 245 247 251 255 259 261 262 263 262 259 254 250 250 253 254 255 257 259 259 263 267 268 268 269 268 265 260 255 252 253 254 257 260
223 226 236 248 262 279 287 282 282 290 294 296 292 278 246 220 227 257 248 212 202 202 202 200 197 195 192 193 195 198 200 203 207 213 217 213 209 210 214 219 226 233 234 231 231 234 237 241 244 247 250 253 254 253 254 255 256 259 262 264 263 260 256 253 253 255 257 259 261 263 265 267 267 268 270 270 269 267 266 264 263 263 263 264 264
211 227 245 263 271 279 280 271 279 286 287 286 280 269 253 241 255 262 240 203 194 195 195 193 190 192 194 196 199 201 202 207 212 218 224 226 223 219 218 220 224 230 233 232 231 234 239 242 245 249 253 256 259 259 258 257 257 259 261 263 263 260 258 257 257 258 258 259 260 262 266 267 266 267 268 268 268 269 269 270 271 272 271 268 266
246 256 265 278 277 270 267 270 279 283 284 280 270 265 261 267 273 254 221 194 193 202 206 202 195 193 195 199 201 202 205 211 218 223 228 234 238 235 230 226 226 229 230 230 230 233 238 243 246 249 252 256 260 259 258 256 256 257 258 260 261 259 257 256 255 256 255 255 258 261 264 266 266 266 265 265 265 265 266 268 270 271 269 266 264
260 265 269 272 268 263 266 274 280 280 279 270 260 257 252 268 271 231 204 194 197 209 210 202 200 204 206 208 209 209 213 219 222 227 233 240 245 242 237 234 232 230 230 230 230 232 237 242 246 248 251 254 257 256 254 252 251 253 254 255 254 252 250 249 248 249 249 251 254 256 259 260 260 260 260 260 261 261 263 266 267 266 263 263 264
261 268 270 261 254 258 263 271 278 274 268 261 256 251 242 241 238 219 206 197 198 209 206 201 214 227 225 225 225 224 227 227 226 229 233 239 243 239 234 237 237 234 233 232 231 233 237 241 246 249 251 252 255 257 254 250 249 249 249 249 249 247 245 243 243 244 246 247 249 252 253 254 254 255 255 257 259 261 262 263 263 262 262 263 265
261 265 262 252 250 253 256 262 264 260 258 255 250 245 241 235 227 220 209 199 199 211 209 212 228 235 231 230 231 235 236 233 230 233 236 240 242 238 237 244 246 241 237 235 234 235 238 243 247 250 252 252 254 257 256 253 251 250 249 248 247 246 244 242 241 243 244 246 247 249 251 252 252 253 254 255 256 258 258 259 260 262 265 267 270
256 260 260 255 251 250 253 254 252 251 248 244 244 244 243 234 220 211 205 200 205 216 219 226 233 234 234 234 235 239 238 233 232 234 238 243 245 242 244 253 258 255 247 240 237 238 239 241 245 248 250 250 250 252 254 254 253 252 252 251 249 248 246 245 244 245 246 247 248 249 249 250 251 252 253 253 254 255 256 257 259 261 264 265 266
251 257 259 258 255 252 252 249 245 244 241 236 236 236 235 231 222 214 210 212 224 233 235 239 242 245 249 251 252 252 246 238 237 239 244 251 253 249 248 254 260 262 255 245 239 238 238 239 242 245 248 248 248 247 248 250 251 251 251 251 251 251 250 251 251 251 251 252 253 252 251 251 251 251 251 251 252 254 255 256 257 259 260 260 261
246 250 253 255 257 257 256 253 247 242 236 231 228 227 228 229 228 229 231 237 244 247 246 246 249 252 253 252 252 250 245 241 243 248 256 261 259 252 248 252 257 259 254 246 239 236 236 239 242 245 247 247 246 244 244 246 248 248 248 249 250 250 251 252 252 252 252 253 253 252 251 251 250 250 250 251 251 253 255 256 257 257 259 261 264
238 244 248 249 253 259 260 255 248 239 231 226 225 227 231 234 236 240 244 248 249 250 250 249 249 247 246 247 247 244 241 242 245 252 257 257 252 247 242 243 250 253 251 247 241 238 238 241 245 246 245 244 243 242 242 243 244 246 248 249 249 250 250 251 251 250 249 247 247 246 245 245 245 246 247 248 249 249 251 252 253 255 257 260 263
234 241 248 249 251 257 254 246 242 237 230 229 230 232 235 237 240 242 243 244 245 247 248 249 247 244 245 248 250 248 246 247 251 254 253 249 244 240 239 241 245 248 249 247 244 241 241 242 245 245 244 243 243 242 242 242 242 243 245 248 249 250 251 251 250 249 246 244 243 242 242 242 241 241 242 243 244 244 245 246 247 249 251 255 260
239 241 244 246 249 251 245 240 241 238 235 237 238 237 238 239 240 242 243 244 245 246 249 251 249 246 246 248 250 251 249 249 255 258 253 249 246 243 244 248 249 249 250 250 247 244 242 241 242 243 243 243 244 244 245 244 244 244 246 248 250 251 253 252 250 248 246 244 242 242 241 241 241 241 242 242 242 242 243 245 247 250 253 258 263
240 243 241 240 242 243 241 241 242 238 235 236 236 236 237 238 238 243 248 248 248 250 252 252 251 251 253 255 254 256 255 251 255 261 258 252 248 245 246 248 249 252 254 253 249 245 242 240 239 240 241 242 244 246 247 248 249 249 250 250 250 250 249 247 246 245 244 243 242 242 242 243 244 244 243 242 242 243 246 249 253 258 262 267 272
245 250 244 235 233 234 234 235 237 235 233 233 233 235 237 237 237 241 244 243 245 252 253 250 251 255 259 259 257 259 259 256 255 259 260 253 246 243 246 248 251 255 256 254 254 251 247 244 242 240 240 242 244 245 247 249 250 251 251 250 249 247 245 243 242 241 240 240 240 241 242 243 244 244 243 244 246 250 254 258 262 267 271 276 279
253 258 255 245 237 235 231 229 229 231 233 234 235 237 237 234 229 225 224 227 233 242 245 245 246 250 253 252 251 253 253 251 250 251 258 257 246 241 244 248 252 256 256 254 254 254 253 251 248 244 243 243 244 245 247 249 250 251 252 253 253 251 248 244 242 241 241 242 243 244 246 248 250 252 253 254 257 260 264 269 273 277 281 284 285
256 259 257 251 245 238 228 223 225 229 230 230 230 231 227 221 217 215 216 221 227 230 232 234 238 242 244 243 244 246 246 246 246 247 253 257 249 243 243 245 250 258 259 256 254 253 254 254 252 249 246 243 243 244 247 250 253 255 257 258 259 257 253 250 249 249 250 251 252 253 254 257 260 262 264 266 267 270 272 276 279 282 285 287 288
252 252 249 247 242 234 223 218 221 223 223 223 224 221 215 212 214 218 222 228 237 241 239 236 235 237 239 239 239 241 241 243 246 248 252 256 253 248 246 248 253 258 260 260 258 254 253 254 254 254 250 246 244 246 249 253 256 259 261 261 261 259 256 255 254 255 256 258 259 260 262 264 267 269 270 271 271 272 275 277 280 281 283 285 287
245 244 243 242 238 230 224 223 224 225 225 228 230 225 219 220 223 227 232 239 246 250 246 240 237 235 237 239 240 240 238 239 244 249 253 254 249 240 240 248 253 252 253 259 261 259 256 254 256 256 253 250 248 249 252 254 256 258 260 260 260 259 257 257 257 258 259 261 262 264 266 268 269 270 270 270 271 273 275 279 281 282 282 284 289
242 240 238 237 234 230 229 231 232 232 233 234 235 234 232 233 235 236 238 241 245 247 246 244 242 240 239 241 242 242 241 241 244 246 245 243 240 236 239 246 247 244 248 257 264 265 261 254 252 252 252 252 252 252 254 255 256 256 257 257 258 257 257 258 259 260 260 261 263 264 265 267 268 269 271 272 274 276 278 280 282 282 282 284 289
233 233 232 231 229 228 231 238 240 239 237 235 235 236 237 238 239 240 240 241 243 245 246 245 245 245 245 246 246 245 246 246 246 242 235 231 233 234 235 238 239 242 250 258 264 267 264 256 249 247 250 253 256 259 260 260 259 258 257 258 257 257 257 257 257 257 258 259 260 261 262 264 265 267 270 272 275 276 277 277 278 279 279 280 284
225 232 236 232 228 228 233 239 240 238 235 234 233 233 235 237 239 240 240 241 241 242 243 244 245 246 248 249 248 248 249 250 248 245 242 241 239 234 231 237 244 246 247 250 256 260 260 256 250 248 250 255 261 265 265 265 264 262 261 260 260 260 260 259 258 258 257 258 259 260 261 262 264 267 269 271 273 274 274 274 275 276 277 277 280
235 237 240 233 226 229 235 237 236 232 228 226 225 226 230 233 236 238 238 239 240 241 242 244 245 247 249 251 251 250 250 251 251 250 252 254 252 247 245 249 253 252 247 246 250 254 256 255 252 248 249 256 262 264 263 263 263 262 261 261 260 261 261 262 262 262 261 261 262 262 262 263 265 267 269 270 271 271 271 274 277 279 279 278 280
233 231 232 229 224 227 232 233 232 230 228 226 224 223 225 227 229 232 234 236 238 239 239 240 242 245 248 249 250 249 248 248 248 248 250 252 252 253 253 253 251 252 253 252 252 254 255 255 253 248 249 257 263 263 261 260 260 259 259 259 259 260 261 262 262 263 264 264 264 264 265 266 268 269 270 270 269 270 274 277 278 279 279 278 280
229 227 226 224 221 221 225 229 232 232 233 234 229 224 225 227 228 230 234 238 242 243 242 242 244 247 249 248 248 248 249 249 248 248 249 250 251 252 252 252 251 252 256 257 258 258 257 256 255 253 254 260 263 264 262 262 261 260 260 261 262 263 264 263 262 262 264 266 268 269 269 269 270 270 270 270 271 273 277 280 281 282 282 281 283
219 220 218 218 219 221 225 232 241 245 246 245 241 237 238 240 240 242 245 248 249 248 248 249 251 253 254 253 251 252 252 253 254 254 255 255 255 255 256 256 256 256 257 257 258 258 258 257 256 256 258 260 262 263 263 262 262 262 263 263 263 264 265 265 264 263 263 265 269 272 271 270 269 269 268 269 269 270 273 277 279 282 285 286 286
218 222 226 228 231 235 238 243 248 251 252 251 250 249 251 252 252 252 253 254 252 251 251 253 255 256 257 257 257 258 259 259 259 260 260 259 259 260 260 261 261 261 260 259 259 259 259 258 258 258 259 260 261 262 262 262 262 262 263 264 264 265 266 267 267 266 265 265 266 268 270 272 272 272 271 270 269 267 268 271 275 278 281 284 284
249 248 248 246 246 247 249 251 251 251 251 250 250 251 252 254 255 256 255 255 255 254 254 254 255 257 258 259 261 263 264 265 264 263 262 260 260 259 259 260 260 260 259 258 258 257 257 258 258 258 259 259 259 261 262 263 262 262 263 264 265 266 268 269 270 270 270 269 268 268 269 270 271 272 272 272 272 271 269 269 271 274 277 279 280
255 255 254 253 253 251 249 248 249 249 249 249 250 250 251 252 254 256 257 258 258 258 258 258 258 259 261 262 264 266 268 269 270 267 264 261 259 259 258 258 258 258 259 259 259 259 259 260 261 262 262 262 262 262 263 263 263 263 263 264 264 266 267 268 269 270 270 270 269 268 268 268 268 269 270 271 272 272 271 271 272 273 275 277 279
250 252 253 254 254 253 251 250 250 250 250 250 249 250 251 252 253 254 256 258 260 261 262 262 263 264 264 265 266 266 267 268 269 268 266 265 265 265 265 265 266 266 267 267 267 267 267 267 268 269 270 270 269 268 267 266 266 265 265 265 265 265 266 267 268 268 269 268 268 268 268 268 269 269 270 271 272 272 273 273 274 275 276 277 279
251 252 253 252 252 253 253 254 254 254 253 252 251 252 253 253 253 253 254 255 257 259 261 263 264 265 266 265 265 265 265 265 264 265 265 267 268 270 271 272 273 273 273 272 272 271 270 270 270 270 270 270 271 271 270 270 269 269 268 268 267 267 267 267 267 267 267 267 267 267 267 268 269 270 271 272 273 273 273 273 273 275 276 277 278
253 254 253 251 249 249 250 252 254 254 254 254 254 255 256 256 256 256 256 257 258 259 260 261 262 263 264 265 265 265 265 265 264 264 265 265 266 268 270 271 271 271 271 271 271 270 271 271 270 270 270 270 270 270 269 269 269 269 269 269 270 269 269 269 269 268 268 267 267 267 267 267 268 269 269 270 271 271 272 272 273 275 275 275 274
251 253 252 251 250 250 251 252 253 253 254 255 256 257 258 258 258 258 259 259 259 260 260 261 261 263 264 265 266 266 267 267 267 267 267 267 267 267 268 268 269 269 270 270 270 270 271 271 272 272 272 272 272 271 271 270 270 270 269 269 268 268 268 268 268 268 268 268 268 268 268 268 268 269 269 270 270 271 271 271 273 275 276 276 274
248 249 250 250 251 251 252 253 254 254 254 255 256 257 257 257 258 258 259 259 260 261 262 263 264 265 266 267 267 268 269 269 270 269 269 269 268 268 268 268 268 269 269 270 271 271 271 271 271 271 271 271 271 270 270 270 269 269 269 269 268 268 267 267 266 266 266 266 267 267 267 268 268 269 269 269 270 270 270 271 272 273 274 276 276
247 247 248 249 249 250 251 252 254 254 256 257 258 258 258 258 258 259 259 260 261 262 263 264 266 267 268 269 270 270 270 270 270 270 270 269 269 269 269 268 268 269 269 270 271 272 272 272 271 271 270 270 269 269 269 268 268 268 269 269 269 268 268 267 267 266 266 265 265 265 265 265 266 266 267 267 268 268 268 269 269 266 265 267 268
250 250 250 251 251 252 253 253 254 256 257 259 259 259 259 260 261 261 262 262 263 263 264 265 266 268 269 270 270 270 271 271 271 271 272 272 271 271 271 271 272 272 272 273 274 275 275 275 274 274 273 272 271 271 270 269 269 269 269 268 268 268 268 268 268 267 267 266 266 265 264 264 264 264 264 265 265 265 266 266 265 263 263 266 267
253 254 256 256 257 257 257 257 258 259 260 261 261 261 262 262 263 263 264 264 265 265 266 267 268 269 270 271 272 272 273 273 274 274 275 275 275 275 276 276 277 277 278 278 279 280 280 280 279 278 277 276 274 273 272 271 270 269 269 268 267 267 267 267 267 267 267 267 267 266 266 265 265 264 264 264 263 263 262 261 259 262 264 265 265
254 256 257 258 259 259 260 260 260 261 261 262 262 262 263 263 263 263 264 265 265 266 267 269 270 271 272 273 274 275 276 277 277 278 279 279 280 280 280 280 281 281 282 282 282 282 282 281 281 280 279 278 277 275 274 273 272 271 271 270 268 267 267 266 266 266 266 267 267 266 266 265 265 265 264 264 263 261 259 255 253 257 260 259 259
Height
5770 5771 5772 5772 5774 5776 5778 5779 5779 5780 5780 5779 5780 5780 5782 5782 5782 5783 5783 5784 5786 5787 5786 5785 5784 5784 5784 5785 5787 5788 5789 5790 5790 5790 5790 5791 5791 5791 5792 5792 5792 5793 5793 5793 5794 5794 5795 5795 5795 5795 5795 5795 5795 5796 5796 5796 5797 5798 5798 5798 5798 5798 5798 5798 5798 5798 5798 5798 5798 5798 5799 5799 5800 5800 5801 5801 5801 5802 5803 5802 5803 5804 5803 5803 5803
5768 5769 5768 5769 5771 5774 5776 5777 5778 5779 5778 5778 5778 5779 5780 5780 5780 5781 5782 5783 5784 5784 5784 5783 5782 5782 5783 5783 5785 5787 5788 5788 5788 5788 5789 5789 5790 5791 5791 5791 5791 5791 5792 5792 5792 5793 5793 5794 5794 5794 5794 5794 5794 5794 5795 5795 5796 5796 5797 5797 5797 5797 5797 5798 5798 5798 5798 5798 5798 5798 5798 5799 5799 5800 5800 5800 5800 5801 5801 5802 5803 5803 5802 5801 5801
5766 5766 5765 5766 5770 5773 5775 5776 5776 5776 5776 5776 5776 5776 5777 5778 5778 5779 5780 5781 5781 5781 5781 5780 5780 5781 5782 5782 5784 5786 5787 5787 5787 5788 5788 5788 5789 5789 5790 5790 5790 5790 5791 5791 5791 5792 5792 5792 5793 5792 5792 5792 5793 5793 5793 5794 5794 5795 5796 5796 5796 5796 5796 5797 5797 5797 5797 5797 5797 5797 5797 5798 5798 5799 5799 5800 5800 5801 5801 5802 5803 5802 5800 5799 5800
5762 5762 5763 5767 5770 5771 5772 5772 5773 5774 5773 5773 5773 5773 5773 5774 5774 5775 5776 5777 5778 5778 5778 5778 5778 5780 5781 5781 5783 5785 5786 5786 5787 5787 5787 5787 5788 5788 5788 5788 5789 5789 5789 5790 5790 5790 5790 5791 5791 5791 5791 5791 5791 5792 5792 5792 5793 5794 5794 5795 5795 5796 5796 5796 5797 5797 5797 5797 5797 5797 5797 5797 5797 5798 5799 5799 5799 5800 5801 5801 5802 5801 5800 5798 5799
5759 5760 5763 5767 5769 5769 5770 5770 5770 5771 5770 5769 5771 5771 5771 5771 5771 5772 5773 5774 5775 5775 5776 5776 5776 5778 5779 5780 5782 5783 5784 5784 5785 5785 5786 5786 5786 5787 5787 5787 5788 5788 5788 5788 5789 5789 5789 5789 5790 5790 5790 5790 5790 5791 5791 5792 5792 5793 5793 5794 5794 5795 5795 5796 5796 5796 5796 5796 5796 5796 5796 5796 5797 5797 5798 5798 5799 5800 5800 5800 5801 5801 5799 5798 5798
5757 5759 5762 5765 5767 5769 5769 5768 5768 5769 5768 5767 5767 5768 5769 5769 5770 5770 5770 5771 5772 5773 5773 5773 5774 5776 5777 5778 5779 5781 5782 5782 5783 5783 5784 5785 5785 5785 5786 5786 5787 5787 5787 5787 5788 5788 5788 5789 5789 5789 5790 5790 5790 5790 5790 5791 5791 5792 5792 5793 5793 5794 5795 5796 5796 5796 5796 5795 5795 5795 5795 5796 5796 5796 5797 5797 5798 5799 5799 5800 5800 5800 5798 5797 5798
5756 5759 5761 5764 5766 5767 5768 5767 5766 5766 5766 5765 5765 5766 5766 5767 5767 5767 5767 5768 5769 5770 5771 5771 5772 5773 5774 5775 5776 5777 5779 5779 5780 5781 5782 5783 5784 5784 5784 5785 5785 5786 5786 5786 5787 5787 5788 5788 5788 5789 5789 5789 5789 5789 5790 5790 5791 5791 5792 5792 5793 5793 5794 5795 5796 5796 5795 5794 5794 5794 5795 5795 5795 5795 5796 5796 5797 5798 5798 5799 5799 5798 5797 5796 5797
5755 5758 5760 5762 5764 5765 5765 5765 5764 5763 5763 5763 5763 5763 5764 5763 5764 5764 5765 5765 5766 5767 5768 5768 5770 5771 5772 5772 5774 5775 5776 5777 5778 5779 5780 5781 5782 5782 5783 5783 5784 5784 5785 5785 5786 5786 5787 5787 5788 5788 5789 5789 5789 5788 5789 5789 5789 5790 5791 5791 5792 5793 5793 5794 5795 5796 5795 5794 5794 5794 5794 5795 5795 5795 5795 5795 5796 5796 5797 5797 5797 5797 5796 5795 5795
5754 5756 5759 5760 5760 5761 5762 5761 5761 5760 5760 5760 5760 5761 5761 5761 5761 5762 5762 5762 5763 5764 5765 5766 5767 5768 5769 5770 5772 5774 5775 5775 5776 5777 5778 5779 5780 5780 5781 5782 5782 5783 5784 5784 5785 5785 5785 5786 5787 5787 5788 5788 5788 5788 5788 5788 5788 5789 5789 5790 5791 5791 5792 5793 5794 5795 5795 5795 5794 5794 5794 5794 5794 5794 5794 5794 5794 5795 5795 5796 5795 5795 5794 5794 5794
5753 5754 5756 5757 5757 5758 5758 5758 5757 5756 5756 5757 5757 5758 5758 5759 5759 5760 5760 5760 5761 5762 5763 5764 5765 5766 5767 5769 5770 5772 5773 5773 5774 5775 5776 5777 5778 5779 5779 5780 5780 5781 5782 5783 5783 5783 5784 5784 5785 5786 5786 5787 5787 5787 5787 5787 5788 5788 5788 5788 5789 5790 5791 5792 5793 5794 5794 5794 5794 5794 5794 5794 5794 5793 5793 5793 5793 5793 5793 5794 5793 5792 5792 5792 5792
5750 5752 5753 5753 5754 5754 5754 5754 5754 5753 5753 5753 5753 5754 5755 5755 5757 5757 5757 5758 5759 5759 5760 5761 5762 5763 5765 5766 5768 5769 5770 5771 5772 5773 5774 5775 5776 5777 5777 5778 5778 5779 5780 5781 5781 5782 5782 5783 5783 5784 5785 5785 5786 5786 5786 5787 5787 5787 5787 5787 5788 5788 5789 5790 5791 5792 5792 5792 5792 5793 5793 5793 5793 5793 5792 5792 5791 5791 5791 5791 5790 5790 5790 5790 5790
5748 5749 5749 5750 5750 5750 5750 5751 5751 5750 5750 5751 5751 5752 5752 5752 5753 5754 5755 5755 5756 5757 5758 5759 5760 5761 5762 5764 5766 5767 5768 5769 5770 5771 5772 5773 5773 5774 5775 5775 5776 5777 5778 5779 5780 5780 5781 5781 5782 5782 5783 5784 5784 5784 5785 5785 5786 5786 5786 5786 5787 5787 5788 5788 5789 5790 5790 5791 5791 5791 5791 5792 5792 5792 5792 5791 5790 5790 5789 5789 5788 5787 5787 5787 5787
5744 5744 5744 5745 5746 5746 5747 5747 5748 5748 5748 5748 5749 5750 5750 5751 5751 5752 5753 5753 5754 5755 5756 5757 5758 5759 5760 5762 5764 5765 5766 5767 5768 5768 5769 5770 5771 5772 5773 5773 5774 5775 5776 5777 5778 5779 5779 5779 5780 5780 5781 5782 5783 5783 5783 5784 5784 5785 5785 5785 5785 5785 5786 5787 5787 5788 5788 5789 5789 5789 5789 5790 5791 5791 5791 5791 5790 5789 5788 5787 5786 5785 5785 5785 5786
5740 5738 5737 5740 5742 5743 5744 5745 5745 5745 5745 5746 5747 5748 5749 5750 5751 5752 5752 5752 5753 5754 5755 5755 5756 5757 5758 5760 5762 5764 5764 5765 5765 5766 5766 5767 5768 5770 5770 5771 5772 5773 5775 5776 5777 5778 5778 5778 5778 5779 5780 5780 5781 5782 5783 5783 5783 5783 5783 5783 5784 5784 5785 5785 5786 5786 5787 5787 5787 5787 5787 5788 5789 5789 5790 5790 5789 5789 5788 5787 5785 5785 5785 5785 5785
5736 5734 5734 5737 5739 5740 5742 5743 5743 5743 5743 5744 5745 5747 5748 5749 5750 5751 5751 5751 5751 5752 5753 5754 5754 5755 5756 5758 5760 5761 5762 5762 5763 5764 5765 5766 5767 5768 5769 5770 5771 5772 5773 5774 5776 5777 5777 5777 5777 5777 5778 5778 5779 5780 5781 5781 5781 5781 5781 5782 5782 5783 5783 5784 5785 5785 5785 5786 5786 5786 5786 5787 5787 5787 5788 5788 5788 5788 5787 5786 5786 5785 5785 5785 5784
5732 5732 5734 5736 5738 5739 5740 5740 5741 5741 5742 5743 5744 5745 5747 5748 5749 5749 5749 5748 5749 5750 5750 5751 5752 5753 5754 5755 5757 5758 5760 5761 5762 5762 5763 5764 5766 5767 5768 5769 5770 5770 5771 5772 5774 5775 5775 5776 5776 5776 5776 5776 5777 5778 5778 5779 5779 5779 5780 5780 5781 5781 5782 5783 5783 5784 5784 5784 5785 5785 5785 5785 5785 5786 5786 5786 5786 5786 5786 5786 5786 5786 5785 5785 5784
5731 5733 5735 5736 5736 5737 5738 5738 5739 5740 5741 5742 5743 5744 5746 5747 5747 5746 5746 5746 5746 5747 5748 5748 5750 5751 5752 5753 5754 5756 5758 5759 5760 5761 5761 5762 5764 5766 5767 5768 5768 5769 5770 5771 5772 5773 5773 5774 5774 5774 5774 5774 5775 5775 5776 5777 5777 5777 5778 5778 5779 5780 5780 5781 5782 5782 5783 5783 5783 5783 5783 5784 5784 5784 5784 5784 5785 5784 5784 5784 5784 5785 5784 5784 5783
5732 5732 5733 5734 5735 5735 5736 5737 5737 5738 5740 5742 5743 5744 5745 5745 5746 5746 5746 5745 5744 5745 5746 5747 5748 5750 5752 5753 5754 5756 5757 5758 5759 5759 5759 5761 5762 5764 5765 5766 5767 5768 5769 5769 5770 5770 5771 5772 5772 5773 5773 5773 5773 5773 5774 5775 5775 5775 5776 5777 5777 5778 5779 5779 5780 5781 5781 5782 5782 5782 5782 5782 5782 5782 5782 5783 5783 5783 5782 5783 5783 5783 5782 5782 5782
5730 5730 5731 5732 5733 5733 5734 5735 5736 5737 5739 5740 5742 5743 5744 5745 5745 5745 5745 5745 5745 5745 5746 5747 5749 5751 5753 5755 5756 5757 5757 5757 5757 5757 5757 5758 5759 5761 5763 5764 5765 5766 5767 5767 5768 5769 5769 5770 5770 5771 5771 5771 5772 5772 5773 5773 5773 5774 5774 5775 5776 5776 5777 5778 5778 5779 5779 5780 5780 5780 5780 5781 5781 5781 5781 5781 5781 5781 5781 5781 5781 5781 5781 5781 5781
5727 5728 5728 5729 5730 5731 5732 5733 5734 5736 5737 5739 5741 5743 5744 5744 5744 5744 5744 5745 5746 5747 5747 5747 5749 5750 5751 5753 5755 5755 5755 5755 5755 5755 5755 5756 5757 5759 5760 5761 5762 5763 5764 5765 5766 5767 5767 5768 5768 5769 5769 5770 5770 5771 5771 5772 5772 5773 5773 5774 5775 5775 5776 5776 5777 5777 5778 5778 5779 5779 5779 5779 5779 5779 5780 5780 5780 5780 5780 5780 5780 5779 5779 5779 5779
5724 5725 5726 5727 5728 5729 5731 5732 5733 5734 5736 5738 5740 5742 5743 5743 5743 5743 5743 5744 5746 5747 5747 5747 5748 5748 5749 5750 5752 5753 5752 5752 5753 5753 5753 5754 5755 5757 5758 5759 5760 5761 5761 5762 5763 5764 5765 5766 5766 5767 5767 5768 5768 5769 5770 5770 5771 5772 5772 5773 5773 5774 5775 5775 5776 5776 5777 5777 5777 5777 5777 5777 5778 5778 5778 5778 5778 5778 5778 5778 5777 5777 5777 5777 5777
5722 5723 5724 5725 5727 5728 5729 5730 5732 5733 5735 5737 5739 5740 5741 5742 5742 5742 5743 5744 5745 5746 5747 5747 5747 5747 5748 5749 5750 5750 5750 5751 5751 5751 5751 5752 5753 5755 5756 5757 5757 5758 5759 5760 5761 5762 5763 5763 5764 5764 5765 5765 5766 5767 5768 5768 5769 5770 5770 5771 5771 5772 5773 5774 5774 5775 5775 5776 5776 5776 5776 5776 5776 5776 5776 5776 5776 5776 5775 5775 5775 5775 5775 5775 5775
5720 5721 5722 5724 5726 5727 5729 5730 5731 5732 5734 5736 5737 5739 5739 5740 5741 5741 5742 5743 5743 5744 5745 5745 5745 5746 5746 5746 5747 5747 5747 5749 5749 5749 5750 5750 5751 5752 5753 5754 5754 5755 5756 5757 5758 5759 5760 5761 5762 5762 5763 5763 5764 5764 5765 5766 5767 5768 5768 5768 5769 5770 5770 5771 5772 5773 5773 5774 5774 5774 5774 5774 5774 5774 5775 5775 5775 5775 5774 5774 5774 5774 5774 5774 5774
5718 5720 5721 5722 5724 5725 5727 5729 5730 5731 5733 5735 5736 5737 5737 5738 5739 5740 5741 5741 5741 5741 5741 5742 5742 5743 5743 5743 5743 5743 5744 5745 5746 5747 5748 5748 5749 5750 5750 5751 5751 5753 5754 5755 5755 5756 5757 5758 5760 5760 5761 5761 5762 5762 5763 5764 5764 5765 5766 5766 5767 5767 5768 5769 5770 5771 5771 5771 5771 5772 5772 5772 5772 5772 5773 5773 5773 5773 5773 5773 5773 5773 5773 5773 5773
5717 5719 5720 5721 5722 5723 5724 5726 5728 5729 5731 5733 5734 5734 5735 5736 5737 5738 5738 5738 5739 5738 5738 5738 5739 5739 5740 5741 5741 5742 5743 5743 5744 5745 5745 5746 5747 5748 5748 5748 5749 5750 5751 5752 5753 5753 5754 5755 5757 5758 5758 5759 5760 5761 5761 5762 5762 5763 5763 5764 5764 5765 5766 5767 5768 5768 5768 5769 5769 5769 5769 5769 5769 5770 5770 5770 5771 5771 5772 5772 5772 5772 5771 5771 5771
5715 5717 5718 5719 5720 5721 5722 5724 5725 5727 5729 5730 5731 5731 5732 5733 5735 5735 5735 5735 5735 5735 5735 5736 5736 5737 5738 5738 5739 5740 5741 5741 5741 5742 5742 5743 5744 5745 5746 5746 5747 5747 5748 5749 5750 5750 5751 5752 5754 5755 5755 5757 5758 5759 5759 5760 5760 5760 5761 5761 5762 5763 5763 5764 5765 5765 5765 5765 5766 5766 5767 5767 5767 5767 5767 5767 5768 5768 5769 5769 5769 5769 5769 5769 5769
5713 5714 5716 5716 5717 5718 5720 5722 5723 5724 5726 5727 5728 5729 5729 5730 5731 5732 5733 5732 5731 5732 5734 5734 5735 5736 5737 5736 5737 5737 5737 5738 5739 5739 5739 5740 5741 5743 5744 5744 5744 5745 5745 5746 5747 5747 5748 5749 5750 5751 5752 5754 5755 5756 5757 5757 5758 5758 5758 5759 5759 5760 5761 5761 5762 5762 5762 5762 5763 5763 5764 5764 5764 5764 5764 5765 5765 5766 5766 5766 5766 5767 5767 5767 5767
5711 5712 5713 5714 5715 5716 5717 5719 5720 5721 5723 5724 5725 5726 5726 5727 5729 5730 5730 5729 5729 5730 5732 5732 5733 5734 5734 5735 5735 5735 5735 5736 5737 5737 5737 5736 5737 5740 5742 5742 5742 5743 5743 5744 5744 5745 5746 5747 5748 5749 5750 5751 5752 5753 5754 5754 5755 5755 5756 5756 5757 5757 5758 5758 5758 5759 5759 5759 5759 5760 5761 5761 5762 5762 5762 5761 5762 5762 5762 5763 5763 5763 5763 5763 5763
5709 5710 5711 5712 5713 5714 5715 5715 5717 5718 5720 5721 5722 5722 5723 5724 5726 5726 5727 5727 5728 5728 5729 5729 5730 5731 5732 5732 5733 5733 5733 5734 5735 5735 5735 5735 5736 5738 5739 5739 5740 5740 5741 5742 5742 5743 5744 5745 5746 5746 5747 5748 5749 5750 5751 5752 5752 5753 5753 5754 5754 5755 5755 5755 5755 5756 5756 5756 5756 5757 5757 5758 5758 5758 5758 5758 5758 5758 5758 5759 5759 5759 5759 5759 5759
5706 5707 5708 5710 5710 5711 5712 5713 5714 5715 5717 5718 5719 5719 5720 5721 5722 5723 5724 5725 5725 5726 5726 5726 5727 5728 5729 5730 5730 5731 5731 5731 5732 5733 5733 5734 5734 5735 5736 5736 5737 5737 5738 5739 5739 5740 5741 5742 5743 5744 5744 5745 5746 5747 5748 5749 5749 5750 5751 5751 5751 5752 5752 5752 5753 5753 5753 5753 5753 5753 5753 5754 5754 5754 5754 5754 5754 5754 5755 5755 5755 5755 5755 5754 5754
5703 5704 5705 5707 5708 5709 5710 5711 5712 5713 5714 5715 5716 5717 5718 5719 5720 5721 5722 5723 5723 5724 5724 5724 5724 5725 5726 5727 5728 5728 5729 5729 5730 5730 5731 5731 5732 5732 5733 5733 5734 5734 5735 5736 5736 5737 5738 5739 5740 5741 5742 5743 5743 5744 5744 5746 5746 5747 5747 5748 5748 5748 5749 5749 5749 5749 5749 5749 5749 5749 5749 5750 5750 5750 5750 5751 5751 5751 5751 5751 5751 5751 5751 5751 5751
5700 5701 5703 5704 5705 5706 5708 5709 5710 5711 5712 5713 5714 5715 5715 5716 5717 5719 5720 5721 5721 5721 5721 5722 5722 5723 5724 5724 5725 5726 5727 5727 5728 5728 5728 5729 5729 5730 5730 5731 5732 5733 5733 5733 5734 5735 5735 5736 5737 5738 5739 5740 5741 5741 5742 5742 5743 5743 5744 5744 5744 5745 5745 5745 5745 5746 5746 5746 5745 5745 5746 5746 5747 5747 5747 5747 5747 5747 5747 5747 5748 5748 5747 5747 5746
5697 5699 5701 5702 5703 5704 5706 5707 5708 5708 5709 5710 5711 5711 5712 5713 5714 5715 5717 5718 5718 5719 5719 5720 5720 5721 5721 5722 5723 5724 5724 5725 5725 5725 5726 5726 5727 5728 5728 5729 5730 5731 5731 5732 5733 5733 5733 5734 5734 5735 5736 5737 5738 5739 5739 5739 5739 5740 5740 5740 5741 5741 5741 5741 5742 5742 5742 5742 5742 5742 5742 5742 5742 5742 5743 5743 5743 5743 5743 5742 5742 5742 5742 5742 5741
5695 5697 5698 5699 5700 5701 5702 5704 5705 5706 5706 5707 5707 5708 5709 5709 5710 5711 5713 5714 5715 5716 5717 5717 5718 5719 5719 5720 5721 5722 5722 5722 5723 5723 5723 5724 5725 5726 5726 5727 5727 5728 5729 5730 5730 5730 5731 5731 5732 5733 5734 5735 5735 5736 5736 5736 5736 5736 5736 5737 5737 5737 5737 5738 5738 5738 5738 5738 5738 5738 5738 5738 5738 5738 5738 5738 5738 5738 5738 5738 5738 5738 5738 5737 5737
5692 5694 5695 5696 5696 5697 5698 5699 5701 5702 5703 5703 5704 5705 5706 5706 5707 5709 5710 5711 5712 5713 5714 5715 5716 5717 5717 5718 5719 5719 5720 5721 5721 5721 5721 5722 5722 5723 5723 5724 5724 5725 5726 5726 5727 5727 5728 5728 5729 5730 5731 5731 5732 5732 5733 5733 5733 5733 5733 5733 5734 5734 5734 5734 5735 5735 5735 5734 5734 5734 5734 5733 5733 5734 5734 5734 5734 5734 5733 5733 5733 5733 5733 5733 5732
5689 5691 5691 5691 5692 5694 5695 5696 5696 5698 5699 5700 5700 5701 5703 5704 5705 5706 5707 5708 5709 5710 5711 5712 5714 5715 5715 5715 5716 5716 5717 5718 5719 5719 5719 5719 5720 5720 5720 5721 5721 5722 5722 5723 5723 5724 5725 5725 5726 5727 5727 5727 5728 5729 5729 5730 5730 5730 5730 5730 5730 5730 5730 5730 5731 5731 5731 5730 5730 5729 5729 5728 5729 5729 5730 5730 5730 5729 5729 5728 5728 5728 5728 5728 5727
5685 5686 5686 5687 5688 5690 5691 5692 5692 5693 5695 5696 5698 5699 5700 5700 5701 5702 5704 5705 5706 5707 5709 5710 5711 5712 5712 5713 5713 5713 5713 5714 5715 5716 5716 5716 5717 5717 5717 5718 5719 5718 5718 5719 5720 5720 5721 5722 5722 5723 5723 5724 5724 5725 5726 5726 5726 5725 5725 5725 5725 5725 5725 5726 5726 5726 5726 5725 5724 5723 5723 5723 5723 5723 5724 5725 5725 5724 5724 5723 5723 5723 5723 5722 5722
5680 5681 5682 5683 5684 5686 5687 5687 5689 5690 5692 5694 5695 5696 5697 5698 5699 5699 5700 5702 5703 5704 5705 5706 5707 5707 5708 5709 5709 5709 5710 5710 5710 5711 5712 5712 5713 5713 5714 5714 5715 5715 5714 5715 5716 5716 5717 5718 5718 5719 5719 5719 5719 5720 5720 5720 5720 5720 5720 5720 5720 5720 5720 5720 5720 5721 5721 5719 5718 5717 5717 5717 5717 5718 5718 5718 5719 5719 5719 5717 5715 5716 5717 5716 5716
5675 5677 5678 5680 5681 5682 5684 5685 5686 5688 5690 5691 5692 5693 5694 5694 5696 5696 5697 5698 5699 5700 5701 5701 5702 5703 5703 5704 5705 5705 5705 5705 5705 5706 5707 5708 5708 5709 5709 5709 5710 5710 5710 5710 5711 5711 5712 5712 5713 5714 5714 5714 5713 5713 5714 5714 5714 5714 5714 5714 5714 5714 5714 5714 5714 5715 5716 5715 5713 5710 5710 5711 5712 5712 5713 5713 5713 5714 5715 5711 5708 5709 5709 5709 5708
5672 5674 5675 5677 5678 5680 5681 5682 5684 5685 5686 5687 5688 5688 5689 5690 5691 5692 5693 5694 5695 5695 5696 5697 5697 5698 5698 5699 5699 5700 5700 5700 5700 5700 5701 5702 5702 5703 5703 5704 5704 5704 5705 5705 5705 5705 5706 5706 5707 5707 5708 5708 5708 5707 5707 5708 5708 5707 5707 5707 5707 5707 5707 5707 5707 5708 5710 5710 5708 5706 5704 5705 5706 5706 5706 5707 5707 5709 5709 5706 5703 5703 5703 5703 5701
5668 5670 5672 5673 5675 5676 5678 5679 5680 5680 5681 5682 5683 5684 5684 5685 5686 5687 5687 5688 5689 5690 5691 5691 5692 5692 5693 5694 5694 5695 5695 5695 5696 5696 5696 5696 5697 5697 5697 5698 5698 5698 5698 5699 5699 5699 5700 5700 5700 5701 5701 5702 5702 5702 5701 5701 5701 5701 5701 5701 5701 5701 5700 5700 5700 5701 5702 5702 5701 5700 5699 5699 5699 5698 5698 5699 5700 5701 5701 5700 5699 5699 5698 5697 5695
5663 5665 5667 5668 5670 5671 5673 5674 5674 5675 5675 5676 5677 5678 5679 5680 5680 5681 5681 5682 5683 5684 5685 5685 5686 5686 5687 5688 5689 5689 5690 5690 5690 5690 5691 5691 5691 5691 5691 5692 5692 5692 5692 5692 5693 5693 5693 5693 5693 5694 5694 5695 5695 5695 5694 5694 5693 5693 5694 5694 5694 5694 5693 5693 5693 5694 5694 5693 5693 5692 5691 5691 5690 5690 5690 5690 5691 5691 5691 5692 5692 5692 5690 5689 5688
5659 5661 5663 5664 5665 5666 5667 5668 5669 5670 5671 5672 5673 5673 5674 5675 5675 5676 5676 5676 5676 5677 5678 5679 5680 5681 5681 5682 5683 5683 5684 5684 5684 5684 5684 5685 5685 5685 5685 5686 5686 5686 5686 5686 5686 5687 5687 5687 5686 5686 5686 5686 5686 5686 5686 5686 5685 5685 5685 5686 5686 5686 5685 5685 5686 5686 5686 5685 5684 5684 5683 5683 5682 5682 5682 5682 5682 5683 5682 5682 5683 5682 5682 5681 5679
5657 5659 5660 5661 5661 5661 5662 5663 5664 5665 5666 5667 5667 5668 5668 5669 5670 5671 5671 5671 5671 5672 5672 5673 5673 5674 5675 5675 5676 5676 5677 5677 5677 5678 5678 5678 5678 5678 5679 5679 5679 5679 5679 5679 5679 5679 5680 5680 5680 5679 5678 5678 5677 5677 5677 5677 5676 5675 5675 5676 5676 5677 5676 5676 5676 5677 5677 5676 5676 5676 5675 5674 5674 5673 5673 5673 5674 5674 5673 5673 5674 5674 5674 5673 5670
5653 5655 5656 5656 5656 5657 5657 5658 5659 5659 5660 5661 5661 5662 5663 5663 5664 5665 5666 5666 5666 5666 5667 5667 5667 5668 5668 5668 5669 5669 5670 5670 5671 5671 5671 5672 5672 5672 5672 5672 5672 5672 5672 5672 5672 5672 5672 5672 5672 5672 5671 5670 5670 5669 5669 5668 5667 5666 5666 5666 5666 5666 5666 5666 5666 5667 5667 5667 5667 5667 5666 5666 5665 5665 5665 5665 5664 5664 5664 5664 5665 5666 5666 5665 5663
5649 5650 5651 5651 5651 5652 5653 5653 5654 5654 5655 5655 5656 5657 5658 5658 5659 5660 5660 5660 5661 5661 5661 5661 5662 5662 5662 5662 5663 5663 5663 5664 5664 5665 5665 5665 5665 5665 5665 5665 5665 5665 5665 5665 5665 5665 5664 5664 5664 5664 5663 5663 5662 5661 5660 5659 5657 5657 5657 5657 5657 5656 5656 5655 5656 5656 5656 5656 5657 5657 5656 5656 5655 5655 5655 5655 5655 5655 5655 5655 5657 5658 5656 5654 5654
5644 5645 5646 5646 5647 5647 5647 5648 5648 5649 5650 5651 5652 5653 5653 5654 5654 5654 5655 5655 5655 5655 5655 5655 5656 5656 5656 5656 5657 5657 5657 5657 5658 5658 5658 5658 5658 5658 5658 5658 5658 5658 5658 5658 5658 5657 5657 5657 5656 5656 5655 5655 5654 5653 5651 5650 5648 5647 5647 5647 5647 5646 5646 5645 5645 5645 5645 5646 5646 5646 5646 5645 5644 5645 5645 5645 5645 5646 5646 5647 5650 5652 5648 5645 5645
5639 5640 5641 5641 5641 5642 5642 5643 5643 5644 5645 5646 5647 5648 5648 5648 5648 5648 5649 5649 5649 5649 5649 5650 5650 5650 5650 5650 5650 5650 5650 5651 5651 5651 5650 5650 5651 5651 5651 5651 5650 5650 5650 5650 5650 5649 5648 5648 5648 5647 5646 5646 5646 5644 5642 5641 5639 5638 5637 5637 5636 5635 5634 5634 5634 5633 5634 5635 5636 5636 5635 5634 5634 5634 5635 5635 5636 5636 5637 5639 5642 5645 5643 5639 5637
5633 5635 5635 5635 5636 5636 5637 5637 5638 5639 5640 5642 5642 5642 5642 5642 5642 5643 5643 5643 5643 5643 5643 5644 5644 5643 5643 5643 5643 5643 5643 5643 5643 5643 5643 5642 5642 5642 5642 5642 5641 5641 5641 5640 5640 5639 5639 5638 5638 5637 5636 5636 5636 5634 5632 5630 5629 5628 5626 5626 5625 5624 5623 5622 5622 5620 5621 5622 5624 5625 5624 5623 5624 5624 5625 5626 5627 5627 5629 5630 5632 5635 5635 5633 5630
5628 5629 5629 5629 5629 5630 5630 5631 5632 5633 5635 5636 5636 5636 5636 5636 5637 5637 5637 5637 5637 5637 5637 5637 5637 5636 5636 5636 5636 5636 5635 5635 5635 5634 5634 5633 5633 5632 5632 5631 5630 5630 5629 5629 5629 5628 5627 5627 5627 5626 5625 5624 5624 5622 5620 5618 5617 5616 5614 5614 5614 5612 5611 5611 5610 5608 5609 5610 5611 5612 5612 5612 5612 5613 5614 5616 5617 5618 5620 5622 5624 5625 5627 5626 5624
5622 5623 5623 5623 5623 5623 5624 5625 5626 5628 5629 5629 5629 5629 5630 5630 5630 5630 5630 5630 5630 5630 5630 5629 5629 5629 5628 5628 5628 5627 5627 5626 5626 5626 5625 5624 5623 5622 5621 5621 5621 5619 5618 5618 5617 5617 5616 5615 5615 5614 5612 5611 5611 5610 5608 5607 5606 5604 5602 5601 5601 5601 5600 5600 5599 5598 5598 5599 5599 5600 5600 5601 5601 5602 5603 5606 5607 5608 5610 5614 5616 5617 5618 5618 5616